Weather History for Sisseton, SD

Change the Weather History Date:

Monday, February 18, 2013

  Actual Average Record
Temperature  
Mean Temperature 18 °F 19 °F  
Max Temperature 35 °F 28 °F 58 °F (1981)
Min Temperature 1 °F 10 °F -28 °F (1966)
Degree Days  
Heating Degree Days 47 46  
Month to date heating degree days 877 875  
Since 1 July heating degree days 5829 5821  
Cooling Degree Days 0 0  
Month to date cooling degree days 0 0  
Year to date cooling degree days 0 0  
Moisture  
Dew Point 9 °F    
Average Humidity 88    
Maximum Humidity 100    
Minimum Humidity 76    
Precipitation  
Precipitation 0.00 in 0.01 in 0.60 in (1991)
Month to date precipitation 1.55 0.23  
Year to date precipitation 2.35 0.66  
Snow  
Snow 0.00 in - - ()
Month to date snowfall 19.9  
Since 1 July snowfall 36.1  
Snow Depth 20.00 in    
Sea Level Pressure  
Sea Level Pressure 29.89 in    
Wind  
Wind Speed 27 mph (NNW)    
Max Wind Speed 40 mph    
Max Gust Speed 45 mph    
T = Trace of Precipitation, MM = Missing Value Source: NWS Daily Summary

Daily Weather History Graph

Daily Weather History Graph

Search for Another Location

Airport:

Trip Planner

Search our weather history database for the weather conditions in past years. The results will help you decide how hot, cold, wet, or windy it might be!

Date:

Astronomy

Feb. 18, 2013 Rise Set
Actual Time 7:24 AM CST 5:59 PM CST
Civil Twilight 6:54 AM CST 6:29 PM CST
Nautical Twilight 6:19 AM CST 7:04 PM CST
Astronomical Twilight 5:45 AM CST 7:39 PM CST
Moon 11:37 AM CST (2/18) 2:14 AM CST (2/18)
Length of Visible Light 11h 35m
Length of Day
10h 34m
First Quarter, 58% of the Moon is Illuminated
Feb 18
First Quarter
Feb 25
Full
Mar 4
Last Quarter
Mar 11
New
Mar 19
First Quarter

Hourly Weather History & Observations

Time (CST) Temp. Windchill Dew Point Humidity Pressure Visibility Wind Dir Wind Speed Gust Speed Precip Events Conditions
12:56 AM 28.0 °F 20.0 °F 26.1 °F 92% 29.56 in - WNW 8.1 mph - N/A   Unknown
1:56 AM 33.1 °F 25.5 °F 28.9 °F 85% 29.56 in - West 9.2 mph - N/A   Unknown
2:56 AM 35.1 °F 25.2 °F 30.9 °F 85% 29.55 in - WNW 16.1 mph - N/A   Unknown
3:56 AM 35.1 °F 24.1 °F 30.9 °F 85% 29.55 in - NW 19.6 mph - N/A   Unknown
4:56 AM 28.0 °F 10.9 °F 25.0 °F 88% 29.62 in - NNW 36.8 mph 42.6 mph N/A   Unknown
5:56 AM 23.0 °F 5.7 °F 19.0 °F 85% 29.67 in - NNW 28.8 mph 39.1 mph N/A   Unknown
6:56 AM 21.0 °F 3.3 °F 17.1 °F 85% 29.70 in - NNW 27.6 mph 35.7 mph N/A   Unknown
7:56 AM 18.0 °F -1.4 °F 14.0 °F 84% 29.77 in - NNW 29.9 mph 38.0 mph N/A   Unknown
8:56 AM 14.0 °F -7.1 °F 9.0 °F 80% 29.81 in - North 31.1 mph 36.8 mph N/A   Unknown
9:56 AM 12.9 °F -8.9 °F 7.0 °F 77% 29.85 in - NNW 32.2 mph 40.3 mph N/A   Unknown
10:56 AM 10.9 °F -11.6 °F 6.1 °F 81% 29.91 in - North 32.2 mph 41.4 mph N/A   Unknown
11:56 AM 10.9 °F -12.8 °F 6.1 °F 81% 29.92 in - NNW 36.8 mph 42.6 mph N/A   Unknown
12:56 PM 10.9 °F -12.2 °F 5.0 °F 77% 29.91 in - North 34.5 mph 40.3 mph N/A   Unknown
1:56 PM 10.9 °F -11.9 °F 7.0 °F 84% 29.93 in - NNW 33.4 mph 40.3 mph N/A   Unknown
2:56 PM 9.0 °F -15.2 °F 5.0 °F 84% 29.95 in - North 35.7 mph 41.4 mph N/A   Unknown
3:56 PM 7.0 °F -16.3 °F 1.9 °F 80% 29.99 in - North 29.9 mph 40.3 mph N/A   Unknown
4:56 PM 7.0 °F -16.7 °F 1.0 °F 77% 30.02 in - North 31.1 mph 39.1 mph N/A   Unknown
5:56 PM 5.0 °F -18.7 °F -0.0 °F 80% 30.07 in - North 28.8 mph 38.0 mph N/A   Unknown
6:56 PM 3.9 °F -20.5 °F -0.9 °F 80% 30.10 in - North 29.9 mph 35.7 mph N/A   Unknown
7:56 PM 1.9 °F -20.2 °F -2.0 °F 83% 30.12 in - North 21.9 mph - N/A   Unknown
8:56 PM 3.0 °F -20.6 °F -2.0 °F 80% 30.14 in - North 26.5 mph 32.2 mph N/A   Unknown
9:56 PM 3.0 °F -20.6 °F -2.9 °F 76% 30.17 in - North 26.5 mph - N/A   Unknown
10:56 PM 1.9 °F -21.6 °F -2.9 °F 80% 30.19 in - North 25.3 mph 34.5 mph N/A   Unknown
11:56 PM 1.0 °F -22.8 °F -4.0 °F 79% 30.22 in - North 25.3 mph 35.7 mph N/A   Unknown